Home > Weather > Ica > Past weeks

Flag for Peru Weather for the Past 2 Weeks in Ica, Ica, Peru

Now
70 °F

Partly sunny.


Feels Like: 70 °F
Forecast: N/A
Wind: 10 mph from Northwest

Location: Pisco Airport

Current Time: Apr 30, 2016 at 3:44:05 PM

Latest Report: Apr 30, 2016 at 3:00 PM


Visibility: 5 mi

Pressure: 29.86 "Hg

Humidity: 83%

Dew Point: 64 °F

Location of IcaLocation

Historic Weather in Ica — Graph

°F

Ica Temperature Yesterday

Maximum temperature yesterday: 77 °F (at 1:00 PM)
Minimum temperature yesterday: 63 °F (at 6:00 AM)
Average temperature yesterday: 69 °F

High & Low Weather Summary for the Past Weeks

 TemperatureHumidityPressure
High79 °F (Apr 15, 2:00 PM)94% (Apr 23, 7:00 AM)29.98 "Hg (Apr 23, 7:00 AM)
Low63 °F (Apr 28, 5:00 AM)58% (Apr 15, 2:00 PM)29.74 "Hg (Apr 26, 3:00 PM)
Average71 °F79%29.86 "Hg
* Reported Apr 15 2:00 PM — Apr 30 2:00 PM, Ica, Weather by CustomWeather, © 2016

Note: Actual official high and low records may vary slightly from our data, if they occured in-between our weather recording intervals... More about our weather records

Advertising

Ica Weather History for the Previous 24 Hours

Scroll right to see more
 ConditionsComfort  
Time TempWeatherWind HumidityBarometerVisibility
2:00 PM
Sat, Apr 30
70 °FScattered clouds.9 mph83%29.86 "Hg5 mi
1:00 PM70 °FScattered clouds.10 mph83%29.86 "Hg5 mi
12:00 PM70 °FLow clouds.8 mph83%29.89 "Hg5 mi
11:00 AM68 °FLow clouds.10 mph88%29.89 "Hg5 mi
10:00 AM68 °FLow clouds.9 mph88%29.89 "Hg4 mi
9:00 AM68 °FLow clouds.6 mph88%29.86 "Hg4 mi
8:00 AM68 °FFog.2 mph83%29.86 "Hg3 mi
7:00 AM64 °FFog.3 mph88%29.83 "Hg3 mi
6:00 AM63 °FPassing clouds.No wind88%29.83 "Hg4 mi
5:00 AM63 °FClear.No wind88%29.80 "Hg4 mi
4:00 AM64 °FPassing clouds.3 mph88%29.80 "HgN/A
3:00 AM66 °FClear.3 mph88%29.80 "Hg10 mi
2:00 AM66 °FClear.9 mph88%29.80 "Hg10 mi
1:00 AM66 °FClear.12 mph88%29.80 "Hg10 mi
12:00 AM66 °FClear.10 mph88%29.80 "Hg10 mi
11:00 PM
Fri, Apr 29
68 °FClear.10 mph83%29.83 "Hg10 mi
10:00 PM68 °FClear.7 mph83%29.83 "Hg10 mi
9:00 PM68 °FClear.12 mph78%29.83 "Hg10 mi
8:00 PM68 °FClear.14 mph78%29.80 "Hg10 mi
7:00 PM70 °FPassing clouds.16 mph73%29.80 "HgN/A
6:00 PM70 °FPassing clouds.21 mph78%29.77 "HgN/A
5:00 PM72 °FPassing clouds.23 mph73%29.77 "HgN/A
4:00 PM73 °FSunny.25 mph69%29.74 "Hg10 mi
3:00 PM73 °FClear.26 mph69%29.77 "Hg5 mi
Weather by CustomWeather, © 2016

See weather overviewHow to use our weather pages